Flag for Canada Weather past 2 weeks in Timmins, Ontario, Canada

Now
61 °F

Sprinkles. More clouds than sun.


Feels Like: 61 °F
Forecast: 50 / 81 °F
Wind: 8 mph from West

Location: Timmins

Current Time: Jul 24, 2014 at 9:54:52 PM

Latest Report: Jul 24, 2014 at 9:00 PM


Visibility: 10 mi

Pressure: 29.90 "Hg

Humidity: 83%

Dew point: 55 °F

Location of TimminsLocation

Historic Weather in Timmins — Graph

°F

Timmins temperature yesterday

Maximum temperature yesterday: 66 °F (at 6:00 PM)
Minimum temperature yesterday: 48 °F (at 11:00 PM)
Average temperature yesterday: 57 °F

Past Weeks' High & Low Weather Summary

 TemperatureHumidityPressure
High81 °F (Jul 11, 4:00 PM)100% (Jul 10, 5:00 AM)30.14 "Hg (Jul 10, 5:00 AM)
Low39 °F (Jul 10, 5:00 AM)37% (Jul 18, 4:00 PM)29.58 "Hg (Jul 13, 12:00 PM)
Average62 °F75%29.93 "Hg
* Reported Jul 9 8:00 PM — Jul 24 8:00 PM, Timmins, Weather by CustomWeather, © 2014

Note: Actual official high and low records may vary slightly from our data, if they occured in-between our weather recording intervals... More about our weather records

Advertising

Timmins weather history for previous 24 hours

 ConditionsComfort  
Time TempWeatherWind HumidityBarometerVisibility
8:00 PM
Jul 24
61 °FCloudy.6 mph88%29.89 "Hg15 mi
7:00 PM64 °FBroken clouds.7 mph83%29.89 "Hg12 mi
6:00 PM72 °FBroken clouds.9 mph53%29.87 "Hg12 mi
5:00 PM73 °FBroken clouds.16 mph50%29.88 "Hg12 mi
4:00 PM73 °FPartly sunny.13 mph53%29.90 "Hg10 mi
3:00 PM70 °FBroken clouds.12 mph60%29.93 "Hg15 mi
2:00 PM68 °FBroken clouds.10 mph64%29.95 "Hg15 mi
1:00 PM64 °FBroken clouds.10 mph73%29.96 "Hg15 mi
12:00 PM63 °FBroken clouds.6 mph77%29.98 "Hg15 mi
11:00 AM55 °FMore clouds than sun.7 mph88%30.00 "Hg15 mi
10:00 AM55 °FLight rain. Mostly cloudy.7 mph88%29.99 "Hg15 mi
9:00 AM55 °FLight rain. Overcast.9 mph82%30.00 "Hg15 mi
8:00 AM54 °FLight rain. Overcast.10 mph82%30.00 "Hg15 mi
7:00 AM55 °FLight rain. Overcast.9 mph77%29.99 "Hg15 mi
6:46 AM55 °FLight rain. Overcast.9 mph77%29.99 "Hg15 mi
6:00 AM55 °FPassing clouds.9 mph72%29.99 "Hg15 mi
5:00 AM54 °FPassing clouds.7 mph77%29.99 "Hg15 mi
4:00 AM54 °FClear.7 mph77%30.00 "Hg15 mi
3:00 AM54 °FClear.6 mph82%30.01 "Hg15 mi
2:00 AM52 °FClear.6 mph82%30.02 "Hg15 mi
1:00 AM52 °FClear.6 mph82%30.03 "Hg15 mi
12:00 AM48 °FPassing clouds.5 mph94%30.04 "Hg15 mi
11:00 PM
Jul 23
48 °FPassing clouds.5 mph94%30.04 "Hg15 mi
10:00 PM54 °FPassing clouds.5 mph82%30.06 "Hg15 mi
9:00 PM57 °FPassing clouds.6 mph72%30.06 "Hg14 mi
Weather by CustomWeather, © 2014

See weather overviewHow to use our weather pages